FDB59J OBBI-OMDB

Flight info

Callsign FDB59J
Flight time N/A
Altitude 25000
Route BHR N697 SODAK P559 VUTEB
Aircraft B738/M-SDE2E3FGHIRWXY/LB1

Departure

Time 2026-05-04 15:51
Airport Bahrain International Airport (OBBI)

Arrival

Time N/A
Airport Dubai International Airport (OMDB)
Time Latitude Longitude Altitude Speed Heading
2026-05-04 15:03 26.26732 50.63228 15 ft 0 kts 210°
2026-05-04 15:35 26.26735 50.63230 15 ft 3 kts 210°
2026-05-04 15:35 26.26758 50.63244 15 ft 4 kts 210°
2026-05-04 15:36 26.26808 50.63261 16 ft 4 kts 166°
2026-05-04 15:36 26.26826 50.63250 13 ft 1 kts 124°
2026-05-04 15:36 26.26829 50.63246 15 ft 0 kts 124°
2026-05-04 15:45 26.26826 50.63250 15 ft 3 kts 123°
2026-05-04 15:46 26.26800 50.63295 13 ft 9 kts 123°
2026-05-04 15:46 26.26800 50.63364 14 ft 10 kts 48°
2026-05-04 15:46 26.26837 50.63433 11 ft 12 kts 104°
2026-05-04 15:46 26.26794 50.63516 13 ft 12 kts 124°
2026-05-04 15:47 26.26741 50.63603 13 ft 16 kts 124°
2026-05-04 15:47 26.26679 50.63706 15 ft 16 kts 121°
2026-05-04 15:47 26.26622 50.63811 15 ft 16 kts 122°
2026-05-04 15:47 26.26550 50.63934 14 ft 21 kts 124°
2026-05-04 15:48 26.26467 50.64081 12 ft 24 kts 125°
2026-05-04 15:48 26.26370 50.64247 12 ft 27 kts 122°
2026-05-04 15:48 26.26169 50.64598 12 ft 25 kts 122°
2026-05-04 15:49 26.26081 50.64751 12 ft 23 kts 122°
2026-05-04 15:49 26.26018 50.64890 14 ft 20 kts 94°
2026-05-04 15:49 26.26030 50.64940 14 ft 0 kts 57°
2026-05-04 15:49 26.26037 50.64950 14 ft 4 kts 54°
2026-05-04 15:50 26.26077 50.64989 16 ft 11 kts 33°
2026-05-04 15:50 26.26152 50.64978 15 ft 13 kts 305°
2026-05-04 15:50 26.26206 50.64886 14 ft 21 kts 303°
2026-05-04 15:50 26.26378 50.64596 11 ft 74 kts 303°
2026-05-04 15:51 26.26746 50.63954 15 ft 120 kts 302°
2026-05-04 15:51 26.27267 50.63062 53 ft 149 kts 303°
2026-05-04 15:51 26.27811 50.62081 385 ft 152 kts 303°
2026-05-04 15:51 26.28446 50.61093 660 ft 161 kts 319°
2026-05-04 15:52 26.29445 50.60519 957 ft 166 kts 350°
2026-05-04 15:52 26.30587 50.60330 1402 ft 165 kts 348°
2026-05-04 15:52 26.31724 50.60021 1759 ft 182 kts 348°
2026-05-04 15:52 26.33064 50.59666 2025 ft 211 kts 348°
2026-05-04 15:53 26.34561 50.59266 2332 ft 229 kts 348°
2026-05-04 15:53 26.36110 50.58851 2866 ft 234 kts 348°
2026-05-04 15:53 26.37721 50.58728 3454 ft 235 kts 14°
2026-05-04 15:53 26.39070 50.59735 4117 ft 241 kts 48°
2026-05-04 15:54 26.40133 50.61263 4487 ft 260 kts 49°
2026-05-04 15:54 26.41287 50.62883 5103 ft 270 kts 47°
2026-05-04 15:54 26.42484 50.64525 5905 ft 275 kts 46°
2026-05-04 15:54 26.43715 50.66173 6696 ft 279 kts 45°
2026-05-04 15:55 26.44982 50.67836 7449 ft 284 kts 45°
2026-05-04 15:55 26.46286 50.69523 8207 ft 289 kts 44°
2026-05-04 15:55 26.47619 50.71232 8974 ft 294 kts 44°
2026-05-04 15:55 26.48979 50.72965 9760 ft 299 kts 44°
2026-05-04 15:56 26.50384 50.74745 10245 ft 316 kts 44°
2026-05-04 15:56 26.51887 50.76638 10416 ft 341 kts 44°
2026-05-04 15:56 26.53512 50.78684 10575 ft 363 kts 44°
2026-05-04 15:56 26.55215 50.80835 10957 ft 375 kts 45°
2026-05-04 15:57 26.56965 50.83050 11422 ft 385 kts 45°
2026-05-04 15:57 26.58726 50.85280 11923 ft 392 kts 45°
2026-05-04 15:57 26.60546 50.87585 12513 ft 397 kts 45°
2026-05-04 15:57 26.62398 50.89930 13257 ft 397 kts 45°
2026-05-04 15:58 26.64208 50.92223 13942 ft 399 kts 45°
2026-05-04 15:58 26.66058 50.94564 14527 ft 404 kts 45°
2026-05-04 15:58 26.67916 50.96916 15095 ft 409 kts 46°
2026-05-04 15:58 26.69811 50.99317 15693 ft 414 kts 46°
2026-05-04 15:59 26.71727 51.01744 16269 ft 419 kts 46°
2026-05-04 15:59 26.73007 51.03369 16651 ft 422 kts 46°
2026-05-04 15:59 26.75410 51.06893 17343 ft 433 kts 63°
2026-05-04 15:59 26.76085 51.08998 17714 ft 437 kts 77°
2026-05-04 16:00 26.76345 51.11918 18213 ft 440 kts 92°
2026-05-04 16:00 26.75503 51.16296 18711 ft 415 kts 111°
2026-05-04 16:00 26.74864 51.18265 18834 ft 397 kts 112°
2026-05-04 16:00 26.73915 51.21062 19020 ft 373 kts 113°
2026-05-04 16:01 26.73013 51.23711 19032 ft 357 kts 113°
2026-05-04 16:01 26.72162 51.26256 19018 ft 342 kts 112°
2026-05-04 16:01 26.71355 51.28709 19002 ft 329 kts 112°
2026-05-04 16:01 26.70596 51.31048 18973 ft 316 kts 112°
2026-05-04 16:02 26.69868 51.33305 18733 ft 312 kts 112°
2026-05-04 16:02 26.69173 51.35466 18744 ft 299 kts 112°
2026-05-04 16:02 26.67821 51.39669 18694 ft 274 kts 113°
2026-05-04 16:03 26.67190 51.41626 18665 ft 261 kts 113°
2026-05-04 16:03 26.66597 51.43466 18626 ft 248 kts 113°
2026-05-04 16:03 26.66028 51.45232 18507 ft 238 kts 113°
2026-05-04 16:03 26.65468 51.46967 18080 ft 239 kts 115°